NOAA 16 DEB, 41409

Orbit data source: Space-Track

NOAA 16 DEB, 41409 is space debris in SSO originally from a launch on Thu, 21 Sep 2000 UTC launched from the Air Force Western Test Range (AFWTR). Debris objects in space refer to the collection of defunct objects orbiting the Earth. Examples of debris include non-operational satellites, rocket bodies, and fragments generated from explosions, collisions, or faulty payload assembly.

Loading next visibility...
Identifier
41409, 2000-055KN
Orbit
SSO
Country
Flag of USUS
Related business
Manufacturer
Unknown
Mission
Spacecraft
Bus & Motor
Unknown
Mass
Unknown
Launch date (UTC)
2000-09-21 (25 years ago)
Launch vehicle
Unknown
Launch site
Air Force Western Test Range (AFWTR)
Object type
Payload
Rocket body
Debris
Shape & HBR
Unknown shape, 0.1 m
Radar Cross Section
Small (<0.1 m²)

Expand to show TLE details & history
Last TLE update: 2 days ago

TLE from 2 days ago
0 NOAA 16 DEB
1 41409U 00055KN  25292.00945413  .00015770  00000-0  50197-2 0  9998
2 41409  98.6511  11.4796 0028342 201.5781 158.4214 14.39674403501216
Epoch: 2025-10-19T00:13Z
TLE epoch observation values (Epoch: 2025-10-19T00:13:36.836Z)
Latitude
-0.00006°
Longitude
-19.65615°
Altitude
781.341 km
Speed
7.453 km/s
True Right ascension
00h 45m 55s
True Declination
0° 00' 00"
Sunlit
Object was in full shadow at epoch
Visualization orbit readout
Latitude
Unknown
Longitude
Unknown
Altitude
Unknown
Speed
Unknown
Apparent Right ascension
Unknown
Apparent Declination
Unknown
Sunlit
N/A
Visualization observer readout
Local Sidereal Time
21:50:19
Azimuth
Unknown
Elevation
Unknown
Doppler factor
Unknown
Orbital elements
Apogee altitude
776.925 km
Perigee altitude
736.482 km
Semi-major axis
7,134.841 km
Eccentricity
0.00283
Inclination
98.6511°
RAAN
11.4796°
Arg. of periapsis
201.5781°
True anomaly
158.54045°
Mean anomaly
158.4214°
Eccentric anomaly
158.48097°
Mean motion
3.60136 °/min
Orbital period
99.96 mins
BSTAR
0.0050197
Loading maneuver chart data...
Computing Atmospheric mass density...
Loading historical data...
Loading historical data...
Loading historical data...
Loading historical data...
Loading historical data...
Loading historical data...
Loading historical data...

Documentation

Showing up to 5 results
|